Dauntless Aviation
Airports Europe France
LFIY

Saint Jean d'Angely

FRANCE

Airport Info
Suggest Updated Information for this Airport

Location

Latitude / Longitude: 45°57'59"N / 0°31'31"W
  45°57.984'N / 0°31.518'W
  45.9664 / -0.5253

Runway Information

Runway 10 /28

Dimensions: 2789 x 164 ft.
Surface: U
 
Runway 10
Runway 28
Latitude: 45.966636 45.965728
Longitude: -0.528086 -0.518369
Elevation: 243 ft. 243 ft.
Runway true heading: 95.7 275.7
 

Instrument Procedures

IAPs (Instrument Approach Procedures)

  Visual Approch Chart
Satellite photo at:
Airport distance calculator
From:
Weather Reports

METAR

LFBG
20.0nm SE
LFBG 260930Z AUTO VRB03KT 9999 FEW033 20/11 Q1022
LFBH
27.2nm W
LFBH 260930Z AUTO 32007KT 280V360 CAVOK 18/13 Q1023 NOSIG
LFBU
34.5nm E
LFBU 260930Z AUTO VRB03KT 9999 FEW034 SCT047 20/09 Q1022 NOSIG

TAF

LFBG
20.0nm SE
TAF LFBG 260500Z 2606/2706 32006KT 9999 SCT045 TEMPO 2607/2611 SCT015 TEMPO 2704/2706 BKN010
LFBH
27.2nm W
TAF LFBH 260500Z 2606/2706 35006KT CAVOK TEMPO 2606/2607 MIFG PROB40 2612/2622 28015G25KT BECMG 2622/2624 BKN014 PROB40 2702/2706 3000 -RA BKN008
LFBU
34.5nm E
TAF LFBU 260500Z 2606/2706 34005KT CAVOK PROB30 2606/2607 MIFG PROB40 2616/2621 34010G20KT BECMG 2703/2706 BKN014
Safelog

 

Dauntless Aviation

© 2007-2016 Dauntless Aviation, all rights reserved
Information provided via PilotNav comes from a variety of official and unofficial data sources. As errors are possible, do not use PilotNav for primary flight planning purposes. Verify any information that you receive via PilotNav with current and canonical charts and other official documents. The material in this database is subject to database copyrights held by Dauntless Aviation and may not be copied without the express permission of Dauntless Aviation - licenses for use of part of all of this data are available for purchase; enquire via the Dauntless Aviation helpdesk. A number of mechanisms and markers exist in the database to protect against and identify infringement / copyright. Automated queries against this website are stictly prohibited, and all activity is logged and analyzed.